Location: Holcomb Observatory
(44.4922°N, 73.1654°W)
Time: 14:48:00
(UTC-04:00)

Daily predictions for brighter satellites

Satellite Brightness Start Highest point End
(mag) Time Altitude Azimuth Time Altitude Azimuth Time Altitude Azimuth
Cosmos 1666 3.3 20:51:24 10° N 20:55:07 40° ENE 20:58:48 10° SSE
Cosmos 1500 4.5 20:52:40 10° NNW 20:56:21 43° W 21:00:02 10° SSW
Lacrosse 5 rocket 1.2 20:55:56 10° SW 20:59:48 88° SE 21:03:54 10° NE
Cosmos 1331 Rocket 4.1 20:55:04 10° NNW 21:00:19 86° WSW 21:05:30 10° SSE
Lacrosse 5 3.5 20:59:19 10° W 21:04:04 39° NNW 21:08:50 10° NE
CZ-4 SHROUD 3.9 21:02:14 10° SE 21:05:13 40° ENE 21:08:13 10° N
Meteor 1-23 Rocket 4.3 20:59:48 10° S 21:05:24 71° E 21:11:06 10° NNE
Cosmos 2285 Rocket 4.1 20:59:13 10° NNW 21:05:34 87° ENE 21:11:55 10° SSE
Cosmos 1743 3.4 21:02:46 10° NNW 21:06:34 57° W 21:10:19 10° S
Cosmos 1302 Rocket 4.1 21:04:20 10° NNW 21:09:34 69° ENE 21:14:48 10° SSE
Cosmos 1726 Rocket 4.1 21:05:35 10° NNW 21:09:59 63° W 21:14:22 10° S
SL-8 R/B 4.1 21:08:28 10° WSW 21:13:17 71° NNW 21:18:08 10° ENE
ALOS 3.9 21:11:10 10° SSW 21:15:24 34° W 21:19:41 10° NNW
SeaSat 1 2.5 21:10:45 10° SE 21:15:40 76° ENE 21:20:38 10° NNW
Okean 2 3.4 21:12:28 10° S 21:16:39 87° E 21:20:52 10° N
CZ-4B R/B 4.2 21:13:30 10° NNE 21:18:05 33° E 21:22:44 10° SSE
Cosmos 1464 Rocket 4.0 21:12:22 10° N 21:18:32 88° W 21:24:42 10° S
Cosmos 1603 4.2 21:14:30 10° S 21:19:38 38° ESE 21:24:47 10° NE
Timation 1 Rocket 4.4 21:14:18 10° NNW 21:20:21 73° ENE 21:26:08 11° SSE
Cosmos 2058 Rocket 3.5 21:16:40 10° NNW 21:21:00 62° W 21:25:18 10° S
Terra 3.9 21:18:34 10° E 21:21:03 14° ENE 21:23:31 10° NNE
APEX 3.6 21:17:58 10° NNW 21:21:52 88° WSW 21:26:55 10° SSE
Meteor 2-9 Rocket 4.3 21:17:08 10° NNW 21:22:48 86° W 21:28:35 10° S
GRACE-1 4.3 21:20:26 10° NNE 21:23:13 44° E 21:25:43 12° SSE
GRACE-2 4.3 21:20:52 10° NNE 21:23:39 44° E 21:26:09 12° SSE
Meteor 2-4 Rocket 4.1 21:21:59 10° SSW 21:27:49 77° WNW 21:33:47 10° N
Cosmos 1602 Rocket 3.6 21:25:55 10° S 21:30:19 63° E 21:34:46 10° NNE
deb Chang Zheng 4 4.3 21:26:40 10° N 21:31:02 59° WNW 21:35:19 10° SSW
Cosmos 1461 2.9 21:26:53 10° NNW 21:31:15 82° NE 21:34:38 15° SE
Cosmos 2333 Rocket 4.2 21:26:32 10° WSW 21:31:34 32° NW 21:36:38 10° N
Milstar 3 Cent rocket 4.3 21:34:05 10° SW 21:36:08 11° SSW 21:37:56 10° S
ATLAS 3B R/B 4.0 21:30:28 10° SSE 21:36:10 23° ESE 21:41:48 10° ENE
Cosmos 2034 Rocket 4.1 21:30:00 10° N 21:36:25 87° W 21:42:45 10° S
Cosmos 1812 Rocket 3.6 21:34:45 10° N 21:39:06 62° E 21:42:44 15° SSE
PSLV R/B 3.5 21:37:02 11° S 21:39:56 65° W 21:43:02 10° NNW
CZ-2C R/B 3.7 21:39:30 10° WSW 21:40:13 11° W 21:40:56 10° WNW
ERS-1 Rocket 4.4 21:39:44 10° SSW 21:44:17 34° W 21:48:52 10° NNW
Envisat 3.4 21:40:14 10° S 21:45:16 65° WSW 21:50:20 10° NNW
Cosmos 1943 4.2 21:41:51 14° SSE 21:45:26 26° ESE 21:50:06 10° NE
BREEZE-M DEB (TANK) 2.4 21:42:34 10° SW 21:46:23 44° SSE 21:48:16 12° E
USA 245 4.3 21:42:59 13° SSE 21:48:24 69° ENE 21:53:40 10° N
USA 234 3.3 21:43:14 15° SE 21:48:51 79° SW 21:55:28 10° NW
YAOGAN 6 2.6 21:50:25 18° SSE 21:53:03 77° ENE 21:56:49 10° N
H-2A R/B 3.9 21:50:27 10° SSW 21:54:03 27° W 21:57:45 10° NW
USA 81 4.4 21:48:56 10° N 21:54:06 50° E 21:57:43 19° SSE
Cosmos 1943 Rocket 3.9 21:52:24 10° N 21:56:32 21° NE 22:00:40 10° E
MetOp-A 4.4 21:56:20 12° S 22:01:14 70° WSW 22:06:36 10° NNW
Abrixas rocket 3.7 21:59:26 10° W 22:02:22 27° SW 22:03:38 21° S
Cosmos 1626 Rocket 4.2 21:59:31 10° SSW 22:03:55 58° W 22:08:17 10° N
ATLAS CENTAUR R/B 4.3 22:01:00 10° W 22:05:11 26° NW 22:09:24 10° NNE
Meteor 2-12 Rocket 4.5 22:04:35 10° N 22:10:44 84° W 22:15:36 17° S
Atlas Centaur 2 3.9 22:08:28 10° SW 22:14:57 27° SSE 22:18:15 21° SE
CZ-4C R/B 3.5 22:15:26 27° SSE 22:17:42 74° ENE 22:21:50 10° N
Cosmos 1953 Rocket 3.8 22:18:28 28° SSE 22:20:28 51° E 22:24:47 10° NNE
H-2A R/B 2.3 22:19:20 26° SE 22:21:55 52° ENE 22:26:49 10° N
Cosmos 2346 Rocket 4.4 22:17:08 17° S 22:22:06 74° E 22:28:15 10° NNE
Cosmos 1992 Rocket 4.0 22:17:32 10° NNW 22:22:48 88° WSW 22:25:45 27° SSE
PSLV R/B 4.2 22:19:43 10° SW 22:22:28 32° S 22:22:28 32° S
SAR-Lupe-2 3.9 22:21:49 34° SE 22:22:58 50° ENE 22:26:28 10° N
CZ-4 R/B 3.9 22:18:00 10° NNE 22:23:00 90° WNW 22:27:22 14° SSW
COSMOS 2455 2.8 22:18:33 10° SSW 22:24:33 80° ESE 22:30:36 10° NNE
Cosmos 2369 Rocket 2.2 22:22:35 10° NNW 22:28:18 76° ENE 22:31:20 28° SE
SPOT 1/Viking Rocket 4.1 22:26:44 17° S 22:30:30 52° W 22:35:33 10° NNW
DELTA 2 DEB (DPAF) 4.2 22:29:29 28° S 22:31:50 79° WSW 22:36:21 10° NNW
ARGOS 3.5 22:29:23 21° S 22:33:02 64° W 22:38:27 10° NNW
SL-16 R/B 4.5 22:30:36 10° WSW 22:35:15 26° NW 22:39:56 10° N
Cosmos 1953 3.5 22:33:30 10° NNE 22:37:00 28° ENE 22:37:47 26° E
Spot 4 4.1 22:35:17 32° SE 22:37:16 55° ENE 22:41:58 10° N
Geosat 3.9 22:32:22 10° NNE 22:37:26 84° ESE 22:42:04 12° SSW
DMSP B5D2-2 4.3 22:32:28 10° NNE 22:37:37 50° E 22:39:47 31° SSE
IGS 5A 3.6 22:36:44 37° SE 22:38:08 60° ENE 22:42:15 10° N
Lacrosse 5 rocket 3.9 22:36:23 10° WNW 22:39:35 22° NNW 22:42:56 10° NNE
Cosmos 1190 Rocket 4.0 22:37:27 24° S 22:40:41 69° ESE 22:46:00 10° NNE
Landsat 7 3.8 22:40:04 31° S 22:42:22 77° WSW 22:47:09 10° NNW
Cosmos-2242 3.6 22:39:41 10° N 22:43:54 44° ENE 22:45:05 35° ESE
Meteor 1-22 Rocket 4.2 22:39:05 10° NNW 22:44:38 84° W 22:47:39 29° S
Lacrosse 5 4.5 22:44:28 10° NW 22:48:13 20° N 22:51:58 10° NE
Spot 2 4.3 22:44:21 10° NNE 22:49:03 67° ESE 22:51:03 35° S
Cosmos 2263 4.1 22:43:59 10° NNW 22:49:38 81° ENE 22:52:07 35° SSE
SL-24 R/B 4.4 22:45:43 10° N 22:50:36 78° E 22:52:51 34° S
COSMOS 2406 4.4 22:50:41 23° ESE 22:51:06 24° E 22:55:33 10° NE
Cosmos 1758 Rocket 3.5 22:53:08 36° SSW 22:54:55 85° W 22:59:20 10° N
Lacrosse 4 Rocket 1.3 22:55:02 52° SE 22:55:26 55° ESE 22:59:26 10° NE
SL-8 R/B 4.4 22:51:31 10° WNW 22:56:16 53° N 23:01:01 10° E
Cosmos 676 Rocket 4.1 22:54:57 37° SSE 22:56:52 58° ESE 23:02:06 10° NNE
Terra 1.8 22:56:20 38° S 22:58:09 77° WSW 23:02:57 10° NNW
CARTOSAT-1 3.7 22:57:34 40° S 22:59:00 68° WSW 23:03:20 10° NNW
Cosmos 1346 Rocket 3.3 23:03:04 31° SW 23:04:39 53° WNW 23:08:31 10° N
Cosmos 1140 Rocket 4.1 23:09:35 36° ESE 23:10:11 37° ESE 23:15:00 10° NE
Cosmos 1900 4.3 23:17:41 39° SSW 23:19:38 77° ESE 23:24:48 10° NE
Cosmos 1758 3.2 23:17:09 10° N 23:21:17 87° E 23:21:45 70° SSE
CZ-4C R/B 4.3 23:22:49 11° E 23:22:49 11° E 23:23:15 10° E
Cosmos 1842 Rocket 3.7 23:18:58 10° N 23:23:18 59° E 23:23:51 54° ESE
Cosmos 1842 3.4 23:23:02 55° SW 23:23:41 67° W 23:27:36 10° N
Nadezhda 4 Rocket 4.0 23:21:22 40° SSE 23:23:45 69° E 23:30:04 10° NNE
ATLAS 3B R/B 2.9 23:18:26 10° SW 23:26:11 85° NW 23:33:44 10° NE
SL-27 R/B 3.2 23:29:35 43° NE 23:29:35 43° NE 23:32:02 10° NNE
Cosmos 1943 4.0 23:23:42 10° SW 23:29:10 49° WNW 23:34:44 10° NNE
Cosmos 407 Rocket 4.0 23:27:23 22° SW 23:30:40 57° WNW 23:35:50 10° NNE
Meteor 2-5 Rocket 4.4 23:34:17 37° ESE 23:35:29 42° E 23:40:56 10° NNE
Cosmos 2208 Rocket 4.0 23:31:54 10° NNW 23:37:06 71° ENE 23:38:18 52° SE
Cosmos 1544 3.3 23:36:01 10° N 23:39:32 61° ENE 23:39:32 61° ENE
Cosmos 1943 Rocket 2.1 23:35:20 10° NNW 23:40:52 73° WSW 23:42:15 51° S
Cosmos 614 Rocket 4.3 23:43:39 46° ESE 23:43:58 46° ESE 23:48:57 10° NNE
CZ-4C R/B 4.0 23:48:57 38° NE 23:48:57 38° NE 23:51:22 10° N
Cosmos 1954 Rocket 4.2 23:47:02 36° SW 23:49:10 67° WNW 23:54:28 10° NNE
CZ-4B R/B 2.8 23:50:30 34° ENE 23:50:30 34° ENE 23:53:39 10° N
